,,,PA_Meas_PMT16A,,PR_Meas_QMR101_102,,RH_Meas_QMH101,,SR_Meas_QMS101,,TA_Meas_QMH101,,GenWind,,GenWind,
date,time,status,PA,status,PR,status,RH,status,SR,status,TA,status,DirAvg,status,SpdAvg,
2010-05-27, 00:00:04,VALID,1011.54,VALID,0,VALID,102.254,VALID,0,VALID,24.1404,VALID,103,VALID,0.951953,
2010-05-27, 00:01:04,VALID,1011.51,VALID,0,VALID,102.261,VALID,0,VALID,24.1617,VALID,108,VALID,1.09219,
2010-05-27, 00:02:04,VALID,1011.49,VALID,0,VALID,102.299,VALID,0,VALID,24.1404,VALID,83,VALID,1.07461,
2010-05-27, 00:03:04,VALID,1011.51,VALID,0,VALID,102.307,VALID,0,VALID,24.1617,VALID,91,VALID,0.808203,
2010-05-27, 00:04:04,VALID,1011.48,VALID,0,VALID,102.307,VALID,0,VALID,24.1404,VALID,95,VALID,0.704687,
2010-05-27, 00:05:04,VALID,1011.47,VALID,0,VALID,102.284,VALID,0,VALID,24.1404,VALID,103,VALID,1.11445,
2010-05-27, 00:06:04,VALID,1011.45,VALID,0,VALID,102.299,VALID,0,VALID,24.1617,VALID,85,VALID,1.22109,
2010-05-27, 00:07:04,VALID,1011.46,VALID,0.5,VALID,102.292,VALID,0,VALID,24.1404,VALID,120,VALID,1.02695,
2010-05-27, 00:08:04,VALID,1011.46,VALID,0,VALID,102.277,VALID,0,VALID,24.1617,VALID,89,VALID,1.22773,
2010-05-27, 00:09:04,VALID,1011.44,VALID,0,VALID,102.269,VALID,0.105969,VALID,24.1209,VALID,86,VALID,0.963281,
2010-05-27, 00:10:04,VALID,1011.44,VALID,0,VALID,102.277,VALID,0,VALID,24.1209,VALID,85,VALID,0.958203,
2010-05-27, 00:11:04,VALID,1011.41,VALID,0,VALID,102.277,VALID,0,VALID,24.1209,VALID,134,VALID,0.676953,
2010-05-27, 00:12:04,VALID,1011.4,VALID,0,VALID,102.284,VALID,0,VALID,24.1422,VALID,128,VALID,1.06484,
2010-05-27, 00:13:04,VALID,1011.36,VALID,0,VALID,102.277,VALID,0.105969,VALID,24.1209,VALID,87,VALID,0.508203,
2010-05-27, 00:14:04,VALID,1011.33,VALID,0,VALID,102.284,VALID,0.105969,VALID,24.1209,VALID,101,VALID,0.669922,
2010-05-27, 00:15:04,VALID,1011.32,VALID,0,VALID,102.284,VALID,0,VALID,24.1209,VALID,104,VALID,1.77188,
2010-05-27, 00:16:04,VALID,1011.29,VALID,0,VALID,102.307,VALID,0,VALID,24.1014,VALID,98,VALID,1.08984,
2010-05-27, 00:17:04,VALID,1011.27,VALID,0,VALID,102.269,VALID,0.105969,VALID,24.1227,VALID,88,VALID,0.708203,
2010-05-27, 00:18:04,VALID,1011.25,VALID,0,VALID,102.261,VALID,0,VALID,24.1014,VALID,133,VALID,1.18203,
2010-05-27, 00:19:04,VALID,1011.21,VALID,0,VALID,102.238,VALID,0,VALID,24.1014,VALID,77,VALID,0.933594,
2010-05-27, 00:20:04,VALID,1011.21,VALID,0,VALID,102.223,VALID,0,VALID,24.1014,VALID,107,VALID,1.48516,
2010-05-27, 00:21:04,VALID,1011.19,VALID,0,VALID,102.208,VALID,0,VALID,24.1014,VALID,95,VALID,1.21289,
2010-05-27, 00:22:04,VALID,1011.16,VALID,0,VALID,102.193,VALID,0,VALID,24.0819,VALID,75,VALID,1.08164,
2010-05-27, 00:23:04,VALID,1011.09,VALID,0,VALID,102.17,VALID,0,VALID,24.0819,VALID,90,VALID,1.8832,
2010-05-27, 00:24:04,VALID,1011.07,VALID,0,VALID,102.177,VALID,0,VALID,24.0624,VALID,94,VALID,0.910547,
2010-05-27, 00:25:04,VALID,1011.01,VALID,0,VALID,102.17,VALID,0.105969,VALID,24.0837,VALID,109,VALID,0.953906,
2010-05-27, 00:26:04,VALID,1010.99,VALID,0,VALID,102.162,VALID,0,VALID,24.0643,VALID,115,VALID,0.462109,
2010-05-27, 00:27:04,VALID,1010.94,VALID,0,VALID,102.185,VALID,0,VALID,24.0235,VALID,74,VALID,0.913672,
2010-05-27, 00:28:04,VALID,1010.95,VALID,0,VALID,102.193,VALID,0,VALID,24.0448,VALID,75,VALID,0.599609,
2010-05-27, 00:29:04,VALID,1010.94,VALID,0,VALID,102.185,VALID,0,VALID,24.0448,VALID,71,VALID,0.574219,
2010-05-27, 00:30:04,VALID,1010.92,VALID,0,VALID,102.216,VALID,0,VALID,24.0235,VALID,96,VALID,1.24219,
2010-05-27, 00:31:04,VALID,1010.89,VALID,0,VALID,102.238,VALID,0,VALID,24.004,VALID,56,VALID,0.919531,
2010-05-27, 00:32:04,VALID,1010.93,VALID,0,VALID,102.254,VALID,0,VALID,24.0253,VALID,108,VALID,0.943359,
2010-05-27, 00:33:04,VALID,1010.87,VALID,0,VALID,102.277,VALID,0,VALID,24.0448,VALID,104,VALID,0.454297,
2010-05-27, 00:34:04,VALID,1010.86,VALID,0,VALID,102.299,VALID,0,VALID,24.004,VALID,79,VALID,0.844922,
2010-05-27, 00:35:04,VALID,1010.84,VALID,0,VALID,102.322,VALID,0,VALID,24.0253,VALID,95,VALID,0.54375,
2010-05-27, 00:36:04,VALID,1010.79,VALID,0,VALID,102.353,VALID,0,VALID,24.004,VALID,97,VALID,0.942969,
2010-05-27, 00:37:04,VALID,1010.77,VALID,0,VALID,102.338,VALID,0,VALID,24.0253,VALID,63,VALID,0.711328,
2010-05-27, 00:38:04,VALID,1010.73,VALID,0,VALID,102.368,VALID,0,VALID,24.0058,VALID,98,VALID,1.32852,
2010-05-27, 00:39:04,VALID,1010.73,VALID,0,VALID,102.36,VALID,0,VALID,23.9845,VALID,72,VALID,0.715234,
2010-05-27, 00:40:04,VALID,1010.7,VALID,0,VALID,102.376,VALID,0,VALID,23.965,VALID,103,VALID,0.773438,
2010-05-27, 00:41:04,VALID,1010.68,VALID,0,VALID,102.36,VALID,0,VALID,23.9863,VALID,84,VALID,0.972656,
2010-05-27, 00:42:04,VALID,1010.69,VALID,0,VALID,102.368,VALID,0,VALID,23.9845,VALID,100,VALID,0.641016,
2010-05-27, 00:43:04,VALID,1010.67,VALID,0,VALID,102.391,VALID,0,VALID,23.9863,VALID,97,VALID,0.904688,
2010-05-27, 00:44:04,VALID,1010.65,VALID,0,VALID,102.406,VALID,0,VALID,23.9863,VALID,77,VALID,1.1668,
2010-05-27, 00:45:04,VALID,1010.58,VALID,0,VALID,102.399,VALID,0,VALID,23.9668,VALID,82,VALID,1.10195,
2010-05-27, 00:46:04,VALID,1010.58,VALID,0,VALID,102.399,VALID,0,VALID,23.9668,VALID,100,VALID,1.47773,
2010-05-27, 00:47:04,VALID,1010.5,VALID,0,VALID,102.414,VALID,0,VALID,23.9455,VALID,65,VALID,1.2875,
2010-05-27, 00:48:04,VALID,1010.5,VALID,0,VALID,102.421,VALID,0,VALID,23.9455,VALID,65,VALID,1.46523,
2010-05-27, 00:49:04,VALID,1010.45,VALID,0,VALID,102.414,VALID,0,VALID,23.926,VALID,65,VALID,0.707812,
2010-05-27, 00:50:04,VALID,1010.45,VALID,0,VALID,102.429,VALID,0,VALID,23.9278,VALID,65,VALID,0.963672,
2010-05-27, 00:51:04,VALID,1010.43,VALID,0,VALID,102.414,VALID,0,VALID,23.9278,VALID,68,VALID,0.325781,
2010-05-27, 00:52:04,VALID,1010.37,VALID,0,VALID,102.444,VALID,0,VALID,23.9065,VALID,53,VALID,0.428906,
2010-05-27, 00:53:04,VALID,1010.38,VALID,0,VALID,102.452,VALID,0,VALID,23.9084,VALID,92,VALID,1.27383,
2010-05-27, 00:54:04,VALID,1010.35,VALID,0,VALID,102.475,VALID,0,VALID,23.8871,VALID,83,VALID,0.923437,
2010-05-27, 00:55:04,VALID,1010.35,VALID,0,VALID,102.475,VALID,0.105969,VALID,23.8676,VALID,79,VALID,0.941797,
2010-05-27, 00:56:04,VALID,1010.35,VALID,0,VALID,102.467,VALID,0,VALID,23.9084,VALID,96,VALID,0.910156,
2010-05-27, 00:57:04,VALID,1010.34,VALID,0,VALID,102.467,VALID,0,VALID,23.9084,VALID,90,VALID,0.771875,
2010-05-27, 00:58:04,VALID,1010.35,VALID,0,VALID,102.49,VALID,0,VALID,23.8889,VALID,82,VALID,0.684375,
2010-05-27, 00:59:04,VALID,1010.35,VALID,0,VALID,102.505,VALID,0,VALID,23.8676,VALID,121,VALID,0.886328,
2010-05-27, 01:00:04,VALID,1010.35,VALID,0,VALID,102.521,VALID,0,VALID,23.8889,VALID,86,VALID,1.22812,
2010-05-27, 01:01:04,VALID,1010.31,VALID,0,VALID,102.513,VALID,0,VALID,23.8889,VALID,69,VALID,1.09922,
2010-05-27, 01:02:04,VALID,1010.31,VALID,0,VALID,102.498,VALID,0,VALID,23.8889,VALID,97,VALID,1.18867,
2010-05-27, 01:03:04,VALID,1010.32,VALID,0,VALID,102.513,VALID,0,VALID,23.8676,VALID,67,VALID,1.57734,
2010-05-27, 01:04:04,VALID,1010.31,VALID,0,VALID,102.521,VALID,0,VALID,23.8676,VALID,99,VALID,1.42617,
2010-05-27, 01:05:04,VALID,1010.29,VALID,0,VALID,102.513,VALID,0,VALID,23.8694,VALID,97,VALID,1.06367,
2010-05-27, 01:06:04,VALID,1010.29,VALID,0,VALID,102.505,VALID,0,VALID,23.8889,VALID,90,VALID,1.11133,
2010-05-27, 01:07:04,VALID,1010.24,VALID,0,VALID,102.521,VALID,0,VALID,23.8676,VALID,102,VALID,2.07617,
2010-05-27, 01:08:04,VALID,1010.24,VALID,0,VALID,102.505,VALID,0,VALID,23.8889,VALID,77,VALID,1.53164,
2010-05-27, 01:09:04,VALID,1010.17,VALID,0,VALID,102.505,VALID,0,VALID,23.8676,VALID,97,VALID,1.15781,
2010-05-27, 01:10:04,VALID,1010.15,VALID,0,VALID,102.482,VALID,0,VALID,23.8889,VALID,89,VALID,1.41055,
2010-05-27, 01:11:04,VALID,1010.15,VALID,0,VALID,102.49,VALID,0,VALID,23.8889,VALID,90,VALID,0.6,
2010-05-27, 01:12:04,VALID,1010.1,VALID,0,VALID,102.498,VALID,0,VALID,23.8481,VALID,91,VALID,0.629687,
2010-05-27, 01:13:04,VALID,1010.07,VALID,0,VALID,102.505,VALID,0,VALID,23.8694,VALID,85,VALID,0.883594,
2010-05-27, 01:14:04,VALID,1010.06,VALID,0,VALID,102.528,VALID,0,VALID,23.8286,VALID,102,VALID,0.723437,
2010-05-27, 01:15:04,VALID,1010.03,VALID,0,VALID,102.528,VALID,0,VALID,23.8694,VALID,82,VALID,0.658594,
2010-05-27, 01:16:04,VALID,1009.99,VALID,0,VALID,102.505,VALID,0,VALID,23.8481,VALID,89,VALID,1.21641,
2010-05-27, 01:17:04,VALID,1009.99,VALID,0,VALID,102.513,VALID,0,VALID,23.8499,VALID,93,VALID,1.24805,
2010-05-27, 01:18:04,VALID,1009.97,VALID,0,VALID,102.528,VALID,0,VALID,23.8304,VALID,86,VALID,0.682031,
2010-05-27, 01:19:04,VALID,1009.95,VALID,0,VALID,102.521,VALID,0.105969,VALID,23.8091,VALID,95,VALID,1.06367,
2010-05-27, 01:20:04,VALID,1009.96,VALID,0,VALID,102.521,VALID,0,VALID,23.8304,VALID,62,VALID,0.75,
2010-05-27, 01:21:04,VALID,1009.97,VALID,0,VALID,102.551,VALID,0.105969,VALID,23.8304,VALID,53,VALID,0.491797,
2010-05-27, 01:22:04,VALID,1009.97,VALID,0,VALID,102.536,VALID,0,VALID,23.8304,VALID,83,VALID,0.151562,
2010-05-27, 01:23:04,VALID,1009.99,VALID,0,VALID,102.551,VALID,0,VALID,23.8499,VALID,83,VALID,0.435547,
2010-05-27, 01:24:04,VALID,1009.96,VALID,0,VALID,102.544,VALID,0,VALID,23.8286,VALID,101,VALID,1.12266,
2010-05-27, 01:25:04,VALID,1009.96,VALID,0,VALID,102.551,VALID,0,VALID,23.8304,VALID,93,VALID,0.791406,
2010-05-27, 01:26:04,VALID,1009.97,VALID,0,VALID,102.551,VALID,0,VALID,23.8109,VALID,77,VALID,1.26992,
2010-05-27, 01:27:04,VALID,1009.97,VALID,0,VALID,102.551,VALID,0,VALID,23.8091,VALID,106,VALID,0.832812,
2010-05-27, 01:28:04,VALID,1009.97,VALID,0,VALID,102.574,VALID,0,VALID,23.8304,VALID,99,VALID,1.12344,
2010-05-27, 01:29:04,VALID,1009.92,VALID,0,VALID,102.559,VALID,0,VALID,23.8109,VALID,105,VALID,1.25547,
2010-05-27, 01:30:04,VALID,1009.92,VALID,0,VALID,102.574,VALID,0,VALID,23.8304,VALID,106,VALID,1.14414,
2010-05-27, 01:31:04,VALID,1009.91,VALID,0,VALID,102.566,VALID,0,VALID,23.8109,VALID,82,VALID,1.65508,
2010-05-27, 01:32:04,VALID,1009.88,VALID,0,VALID,102.566,VALID,0,VALID,23.7896,VALID,98,VALID,1.26445,
2010-05-27, 01:33:04,VALID,1009.88,VALID,0,VALID,102.574,VALID,0,VALID,23.8304,VALID,88,VALID,1.32617,
2010-05-27, 01:34:04,VALID,1009.87,VALID,0,VALID,102.574,VALID,0,VALID,23.7896,VALID,117,VALID,1.3375,
2010-05-27, 01:35:04,VALID,1009.86,VALID,0,VALID,102.582,VALID,0,VALID,23.8091,VALID,88,VALID,0.603516,
2010-05-27, 01:36:04,VALID,1009.85,VALID,0,VALID,102.589,VALID,0,VALID,23.8091,VALID,99,VALID,0.607813,
2010-05-27, 01:37:04,VALID,1009.81,VALID,0,VALID,102.582,VALID,0.105969,VALID,23.8499,VALID,100,VALID,0.233984,
2010-05-27, 01:38:04,VALID,1009.81,VALID,0,VALID,102.589,VALID,0,VALID,23.8304,VALID,97,VALID,0.482031,
2010-05-27, 01:39:04,VALID,1009.79,VALID,0,VALID,102.597,VALID,0,VALID,23.8109,VALID,88,VALID,1.09023,
2010-05-27, 01:40:04,VALID,1009.77,VALID,0,VALID,102.582,VALID,0.105969,VALID,23.7896,VALID,116,VALID,0.886719,
2010-05-27, 01:41:04,VALID,1009.76,VALID,0,VALID,102.574,VALID,0,VALID,23.8304,VALID,81,VALID,0.935156,
2010-05-27, 01:42:04,VALID,1009.8,VALID,0,VALID,102.566,VALID,0,VALID,23.8109,VALID,95,VALID,0.789844,
2010-05-27, 01:43:04,VALID,1009.77,VALID,0,VALID,102.574,VALID,0,VALID,23.8109,VALID,98,VALID,0.6875,
2010-05-27, 01:44:04,VALID,1009.76,VALID,0,VALID,102.597,VALID,0,VALID,23.7896,VALID,93,VALID,1.39023,
2010-05-27, 01:45:04,VALID,1009.79,VALID,0,VALID,102.589,VALID,0,VALID,23.8109,VALID,83,VALID,1.25664,
2010-05-27, 01:46:04,VALID,1009.8,VALID,0,VALID,102.574,VALID,0,VALID,23.7701,VALID,69,VALID,0.95625,
2010-05-27, 01:47:04,VALID,1009.8,VALID,0,VALID,102.589,VALID,0,VALID,23.8109,VALID,80,VALID,0.924219,
2010-05-27, 01:48:04,VALID,1009.83,VALID,0,VALID,102.582,VALID,0,VALID,23.7914,VALID,71,VALID,0.895703,
2010-05-27, 01:49:04,VALID,1009.8,VALID,0,VALID,102.574,VALID,0,VALID,23.7914,VALID,80,VALID,0.79375,
2010-05-27, 01:50:04,VALID,1009.76,VALID,0,VALID,102.574,VALID,0,VALID,23.8109,VALID,92,VALID,0.603125,
2010-05-27, 01:51:04,VALID,1009.77,VALID,0,VALID,102.566,VALID,0,VALID,23.8109,VALID,79,VALID,0.816797,
2010-05-27, 01:52:04,VALID,1009.77,VALID,0,VALID,102.589,VALID,0,VALID,23.7914,VALID,74,VALID,0.722266,
2010-05-27, 01:53:04,VALID,1009.74,VALID,0,VALID,102.559,VALID,0,VALID,23.8109,VALID,78,VALID,0.472656,
2010-05-27, 01:54:04,VALID,1009.74,VALID,0,VALID,102.582,VALID,0,VALID,23.7914,VALID,92,VALID,1.16562,
2010-05-27, 01:55:04,VALID,1009.75,VALID,0,VALID,102.566,VALID,0,VALID,23.7914,VALID,110,VALID,0.753125,
2010-05-27, 01:56:04,VALID,1009.7,VALID,0,VALID,102.551,VALID,0,VALID,23.8109,VALID,81,VALID,0.592578,
2010-05-27, 01:57:04,VALID,1009.7,VALID,0,VALID,102.582,VALID,0.105969,VALID,23.8109,VALID,74,VALID,0.716016,
2010-05-27, 01:58:04,VALID,1009.68,VALID,0,VALID,102.574,VALID,0,VALID,23.7896,VALID,89,VALID,0.701953,
2010-05-27, 01:59:04,VALID,1009.66,VALID,0,VALID,102.574,VALID,0,VALID,23.8304,VALID,88,VALID,0.266797,
2010-05-27, 02:00:04,VALID,1009.64,VALID,0,VALID,102.582,VALID,0,VALID,23.7896,VALID,82,VALID,1.02188,
2010-05-27, 02:01:04,VALID,1009.61,VALID,0,VALID,102.582,VALID,0,VALID,23.8109,VALID,68,VALID,0.865234,
2010-05-27, 02:02:04,VALID,1009.59,VALID,0,VALID,102.582,VALID,0,VALID,23.7896,VALID,95,VALID,0.736719,
2010-05-27, 02:03:04,VALID,1009.52,VALID,0,VALID,102.574,VALID,0.105969,VALID,23.8109,VALID,97,VALID,0.721094,
2010-05-27, 02:04:04,VALID,1009.51,VALID,0,VALID,102.574,VALID,0,VALID,23.7914,VALID,148,VALID,0.532422,
2010-05-27, 02:05:04,VALID,1009.5,VALID,0,VALID,102.559,VALID,0.105969,VALID,23.8109,VALID,96,VALID,0.647656,
2010-05-27, 02:06:04,VALID,1009.49,VALID,0,VALID,102.574,VALID,0,VALID,23.7896,VALID,80,VALID,1.21328,
2010-05-27, 02:07:04,VALID,1009.48,VALID,0,VALID,102.559,VALID,0,VALID,23.8109,VALID,97,VALID,0.851172,
2010-05-27, 02:08:04,VALID,1009.47,VALID,0,VALID,102.597,VALID,0,VALID,23.7701,VALID,98,VALID,0.858203,
2010-05-27, 02:09:04,VALID,1009.47,VALID,0,VALID,102.612,VALID,0,VALID,23.8109,VALID,89,VALID,0.860547,
2010-05-27, 02:10:04,VALID,1009.43,VALID,0,VALID,102.574,VALID,0,VALID,23.8109,VALID,92,VALID,0.849609,
2010-05-27, 02:11:04,VALID,1009.43,VALID,0,VALID,102.597,VALID,0,VALID,23.8109,VALID,97,VALID,1.12305,
2010-05-27, 02:12:04,VALID,1009.38,VALID,0,VALID,102.582,VALID,0,VALID,23.8304,VALID,93,VALID,1.05703,
2010-05-27, 02:13:04,VALID,1009.37,VALID,0,VALID,102.589,VALID,0,VALID,23.8304,VALID,86,VALID,0.817969,
2010-05-27, 02:14:04,VALID,1009.38,VALID,0,VALID,102.589,VALID,0,VALID,23.8091,VALID,84,VALID,0.758594,
2010-05-27, 02:15:04,VALID,1009.37,VALID,0,VALID,102.582,VALID,0,VALID,23.8109,VALID,57,VALID,0.857031,
2010-05-27, 02:16:04,VALID,1009.34,VALID,0,VALID,102.589,VALID,0,VALID,23.8109,VALID,76,VALID,0.819922,
2010-05-27, 02:17:04,VALID,1009.32,VALID,0,VALID,102.589,VALID,0,VALID,23.8109,VALID,52,VALID,0.4625,
2010-05-27, 02:18:04,VALID,1009.34,VALID,0,VALID,102.574,VALID,0,VALID,23.8109,VALID,80,VALID,0.682422,
2010-05-27, 02:19:04,VALID,1009.32,VALID,0,VALID,102.605,VALID,0,VALID,23.8109,VALID,72,VALID,0.537109,
2010-05-27, 02:20:04,VALID,1009.32,VALID,0,VALID,102.582,VALID,0.105969,VALID,23.7914,VALID,93,VALID,1.09805,
2010-05-27, 02:21:04,VALID,1009.32,VALID,0,VALID,102.589,VALID,0,VALID,23.7701,VALID,107,VALID,0.466797,
2010-05-27, 02:22:04,VALID,1009.33,VALID,0,VALID,102.589,VALID,0,VALID,23.7701,VALID,84,VALID,0.528125,
2010-05-27, 02:23:04,VALID,1009.32,VALID,0,VALID,102.597,VALID,0.105969,VALID,23.8109,VALID,99,VALID,0.36875,
2010-05-27, 02:24:04,VALID,1009.3,VALID,0,VALID,102.597,VALID,0,VALID,23.7701,VALID,102,VALID,0.567187,
2010-05-27, 02:25:04,VALID,1009.29,VALID,0,VALID,102.62,VALID,0,VALID,23.7896,VALID,87,VALID,0.722656,
2010-05-27, 02:26:04,VALID,1009.28,VALID,0,VALID,102.605,VALID,0.105969,VALID,23.8109,VALID,87,VALID,0.573047,
2010-05-27, 02:27:04,VALID,1009.27,VALID,0,VALID,102.605,VALID,0,VALID,23.8109,VALID,92,VALID,0.646484,
2010-05-27, 02:28:04,VALID,1009.24,VALID,0,VALID,102.605,VALID,0.105969,VALID,23.8304,VALID,99,VALID,0.759375,
2010-05-27, 02:29:04,VALID,1009.27,VALID,0,VALID,102.605,VALID,0,VALID,23.8109,VALID,88,VALID,0.748047,
2010-05-27, 02:30:04,VALID,1009.22,VALID,0,VALID,102.582,VALID,0.105969,VALID,23.8304,VALID,88,VALID,0.521875,
2010-05-27, 02:31:04,VALID,1009.22,VALID,0,VALID,102.612,VALID,0,VALID,23.8109,VALID,88,VALID,0.282813,
2010-05-27, 02:32:04,VALID,1009.22,VALID,0,VALID,102.605,VALID,0.105969,VALID,23.7701,VALID,66,VALID,0.783594,
2010-05-27, 02:33:04,VALID,1009.19,VALID,0,VALID,102.597,VALID,0,VALID,23.7914,VALID,85,VALID,0.721484,
2010-05-27, 02:34:04,VALID,1009.21,VALID,0,VALID,102.612,VALID,0,VALID,23.7507,VALID,77,VALID,0.685547,
2010-05-27, 02:35:04,VALID,1009.2,VALID,0,VALID,102.612,VALID,0,VALID,23.7914,VALID,75,VALID,1.37031,
2010-05-27, 02:36:04,VALID,1009.18,VALID,0,VALID,102.612,VALID,0,VALID,23.772,VALID,86,VALID,1.19766,
2010-05-27, 02:37:04,VALID,1009.15,VALID,0,VALID,102.627,VALID,0.105969,VALID,23.772,VALID,86,VALID,1.17578,
2010-05-27, 02:38:04,VALID,1009.16,VALID,0,VALID,102.589,VALID,0,VALID,23.772,VALID,71,VALID,1.02422,
2010-05-27, 02:39:04,VALID,1009.12,VALID,0,VALID,102.62,VALID,0.105969,VALID,23.7525,VALID,81,VALID,1.03711,
2010-05-27, 02:40:04,VALID,1009.13,VALID,0,VALID,102.62,VALID,0.105969,VALID,23.7525,VALID,89,VALID,1.05508,
2010-05-27, 02:41:04,VALID,1009.08,VALID,0,VALID,102.62,VALID,0.105969,VALID,23.7507,VALID,77,VALID,0.982031,
2010-05-27, 02:42:04,VALID,1009.06,VALID,0,VALID,102.627,VALID,0.105969,VALID,23.7525,VALID,89,VALID,1.24023,
2010-05-27, 02:43:04,VALID,1009.03,VALID,0,VALID,102.627,VALID,0,VALID,23.733,VALID,72,VALID,1.52109,
2010-05-27, 02:44:04,VALID,1009.04,VALID,0,VALID,102.627,VALID,0.105969,VALID,23.7117,VALID,70,VALID,0.869141,
2010-05-27, 02:45:04,VALID,1009.01,VALID,0,VALID,102.627,VALID,0.105969,VALID,23.733,VALID,79,VALID,0.471875,
2010-05-27, 02:46:04,VALID,1008.99,VALID,0,VALID,102.62,VALID,0.105969,VALID,23.6922,VALID,82,VALID,0.859375,
2010-05-27, 02:47:04,VALID,1008.99,VALID,0,VALID,102.627,VALID,0.105969,VALID,23.7135,VALID,84,VALID,0.962109,
2010-05-27, 02:48:04,VALID,1008.97,VALID,0,VALID,102.65,VALID,0.105969,VALID,23.6922,VALID,87,VALID,0.6125,
2010-05-27, 02:49:04,VALID,1008.99,VALID,0,VALID,102.627,VALID,0.105969,VALID,23.6922,VALID,71,VALID,1.28789,
2010-05-27, 02:50:04,VALID,1008.98,VALID,0,VALID,102.635,VALID,0.105969,VALID,23.7135,VALID,93,VALID,0.827734,
2010-05-27, 02:51:04,VALID,1008.98,VALID,0,VALID,102.635,VALID,0.105969,VALID,23.694,VALID,71,VALID,1.03594,
2010-05-27, 02:52:04,VALID,1009.01,VALID,0,VALID,102.62,VALID,0,VALID,23.7135,VALID,101,VALID,0.999609,
2010-05-27, 02:53:04,VALID,1009,VALID,0,VALID,102.62,VALID,0,VALID,23.7135,VALID,84,VALID,0.5375,
2010-05-27, 02:54:04,VALID,1009,VALID,0,VALID,102.62,VALID,0.105969,VALID,23.694,VALID,86,VALID,0.505859,
2010-05-27, 02:55:04,VALID,1009.01,VALID,0,VALID,102.673,VALID,0.105969,VALID,23.7135,VALID,70,VALID,0.700391,
2010-05-27, 02:56:04,VALID,1008.98,VALID,0,VALID,102.627,VALID,0.105969,VALID,23.6727,VALID,80,VALID,1.23125,
2010-05-27, 02:57:04,VALID,1008.97,VALID,0,VALID,102.627,VALID,0.105969,VALID,23.694,VALID,98,VALID,1.16211,
2010-05-27, 02:58:04,VALID,1008.96,VALID,0,VALID,102.612,VALID,0.105969,VALID,23.6922,VALID,88,VALID,0.683984,
2010-05-27, 02:59:04,VALID,1008.95,VALID,0,VALID,102.605,VALID,0,VALID,23.6922,VALID,92,VALID,0.836719,
2010-05-27, 03:00:04,VALID,1008.95,VALID,0,VALID,102.635,VALID,0.105969,VALID,23.7135,VALID,96,VALID,0.854688,
2010-05-27, 03:01:04,VALID,1008.92,VALID,0,VALID,102.612,VALID,0,VALID,23.6922,VALID,97,VALID,0.570313,
2010-05-27, 03:02:04,VALID,1008.92,VALID,0,VALID,102.627,VALID,0.105969,VALID,23.7117,VALID,88,VALID,0.969141,
2010-05-27, 03:03:04,VALID,1008.9,VALID,0,VALID,102.635,VALID,0.105969,VALID,23.7117,VALID,129,VALID,0.530859,
2010-05-27, 03:04:04,VALID,1008.89,VALID,0,VALID,102.62,VALID,0.105969,VALID,23.7312,VALID,106,VALID,1.24961,
2010-05-27, 03:05:04,VALID,1008.88,VALID,0,VALID,102.612,VALID,0,VALID,23.7507,VALID,124,VALID,1.0543,
2010-05-27, 03:06:04,VALID,1008.87,VALID,0,VALID,102.605,VALID,0,VALID,23.7525,VALID,139,VALID,0.880078,
2010-05-27, 03:07:04,VALID,1008.87,VALID,0,VALID,102.605,VALID,0,VALID,23.7507,VALID,135,VALID,0.195313,
2010-05-27, 03:08:04,VALID,1008.88,VALID,0,VALID,102.635,VALID,0.105969,VALID,23.772,VALID,149,VALID,0.949219,
2010-05-27, 03:09:04,VALID,1008.88,VALID,0,VALID,102.612,VALID,0.105969,VALID,23.772,VALID,149,VALID,0.659375,
2010-05-27, 03:10:04,VALID,1008.85,VALID,0,VALID,102.612,VALID,0.105969,VALID,23.7507,VALID,142,VALID,0.75,
2010-05-27, 03:11:04,VALID,1008.86,VALID,0,VALID,102.605,VALID,0.105969,VALID,23.772,VALID,141,VALID,0.559766,
2010-05-27, 03:12:04,VALID,1008.82,VALID,0,VALID,102.627,VALID,0.105969,VALID,23.772,VALID,114,VALID,0.179688,
2010-05-27, 03:13:04,VALID,1008.82,VALID,0,VALID,102.62,VALID,0.105969,VALID,23.7507,VALID,148,VALID,0.409766,
2010-05-27, 03:14:04,VALID,1008.8,VALID,0,VALID,102.605,VALID,0.105969,VALID,23.7701,VALID,148,VALID,0.361328,
2010-05-27, 03:15:04,VALID,1008.79,VALID,0,VALID,102.612,VALID,0.105969,VALID,23.7914,VALID,143,VALID,0.517187,
2010-05-27, 03:16:04,VALID,1008.8,VALID,0,VALID,102.605,VALID,0,VALID,23.7701,VALID,143,VALID,0.00820312,
2010-05-27, 03:17:04,VALID,1008.79,VALID,0,VALID,102.605,VALID,0.105969,VALID,23.7896,VALID,125,VALID,0.595703,
2010-05-27, 03:18:04,VALID,1008.81,VALID,0,VALID,102.605,VALID,0.105969,VALID,23.8109,VALID,128,VALID,0.86875,
2010-05-27, 03:19:04,VALID,1008.81,VALID,0,VALID,102.589,VALID,0,VALID,23.8091,VALID,140,VALID,0.871875,
2010-05-27, 03:20:04,VALID,1008.79,VALID,0,VALID,102.582,VALID,0.105969,VALID,23.7896,VALID,129,VALID,0.816016,
2010-05-27, 03:21:04,VALID,1008.77,VALID,0,VALID,102.597,VALID,0,VALID,23.8109,VALID,128,VALID,0.815625,
2010-05-27, 03:22:04,VALID,1008.75,VALID,0,VALID,102.627,VALID,0.105969,VALID,23.8109,VALID,125,VALID,0.889453,
2010-05-27, 03:23:04,VALID,1008.75,VALID,0,VALID,102.627,VALID,0,VALID,23.8109,VALID,114,VALID,1.27695,
2010-05-27, 03:24:04,VALID,1008.72,VALID,0,VALID,102.597,VALID,0.105969,VALID,23.8499,VALID,126,VALID,0.831641,
2010-05-27, 03:25:04,VALID,1008.72,VALID,0,VALID,102.582,VALID,0.105969,VALID,23.8499,VALID,125,VALID,0.667969,
2010-05-27, 03:26:04,VALID,1008.74,VALID,0,VALID,102.605,VALID,0,VALID,23.8499,VALID,102,VALID,0.272266,
2010-05-27, 03:27:04,VALID,1008.7,VALID,0,VALID,102.62,VALID,0.105969,VALID,23.8499,VALID,108,VALID,0.983203,
2010-05-27, 03:28:04,VALID,1008.68,VALID,0,VALID,102.597,VALID,0.105969,VALID,23.8286,VALID,114,VALID,0.969141,
2010-05-27, 03:29:04,VALID,1008.67,VALID,0,VALID,102.62,VALID,0.105969,VALID,23.8286,VALID,99,VALID,1.20469,
2010-05-27, 03:30:04,VALID,1008.7,VALID,0,VALID,102.612,VALID,0.105969,VALID,23.8481,VALID,120,VALID,1.13945,
2010-05-27, 03:31:04,VALID,1008.71,VALID,0,VALID,102.62,VALID,0,VALID,23.8499,VALID,92,VALID,0.664063,
2010-05-27, 03:32:04,VALID,1008.68,VALID,0,VALID,102.627,VALID,0.105969,VALID,23.8286,VALID,118,VALID,1.05703,
2010-05-27, 03:33:04,VALID,1008.7,VALID,0,VALID,102.65,VALID,0,VALID,23.8499,VALID,116,VALID,1.55195,
2010-05-27, 03:34:04,VALID,1008.69,VALID,0,VALID,102.62,VALID,0.105969,VALID,23.8481,VALID,109,VALID,1.12812,
2010-05-27, 03:35:04,VALID,1008.7,VALID,0,VALID,102.635,VALID,0,VALID,23.8286,VALID,112,VALID,1.24023,
2010-05-27, 03:36:04,VALID,1008.68,VALID,0,VALID,102.627,VALID,0,VALID,23.8481,VALID,132,VALID,1.06836,
2010-05-27, 03:37:04,VALID,1008.69,VALID,0,VALID,102.643,VALID,0.105969,VALID,23.8499,VALID,116,VALID,0.751172,
2010-05-27, 03:38:04,VALID,1008.68,VALID,0,VALID,102.635,VALID,0,VALID,23.8694,VALID,130,VALID,0.766406,
2010-05-27, 03:39:04,VALID,1008.69,VALID,0,VALID,102.62,VALID,0.105969,VALID,23.8676,VALID,109,VALID,0.675781,
2010-05-27, 03:40:04,VALID,1008.69,VALID,0,VALID,102.65,VALID,0,VALID,23.8481,VALID,100,VALID,1.45039,
2010-05-27, 03:41:04,VALID,1008.7,VALID,0,VALID,102.62,VALID,0,VALID,23.8286,VALID,108,VALID,0.985156,
2010-05-27, 03:42:04,VALID,1008.73,VALID,0,VALID,102.658,VALID,0,VALID,23.8481,VALID,94,VALID,0.706641,